TimePST,TemperatureF,Dew PointF,Humidity,Sea Level PressureIn,VisibilityMPH,Wind Direction,Wind SpeedMPH,Gust SpeedMPH,PrecipitationIn,Events,Conditions,WindDirDegrees,DateUTC
12:53 AM,7.0,5.0,92,30.52,10.0,NNW,6.9,-,N/A,,Clear,340,2013-01-03 08:53:00
1:53 AM,9.0,5.0,84,30.51,10.0,Calm,Calm,-,N/A,,Clear,0,2013-01-03 09:53:00
2:53 AM,3.9,-0.0,84,30.52,10.0,NNW,4.6,-,N/A,,Clear,330,2013-01-03 10:53:00
3:53 AM,3.0,1.0,91,30.51,10.0,NW,3.5,-,N/A,,Clear,320,2013-01-03 11:53:00
4:53 AM,3.0,-0.0,87,30.51,10.0,NW,4.6,-,N/A,,Clear,320,2013-01-03 12:53:00
5:53 AM,1.0,-2.9,83,30.51,10.0,Calm,Calm,-,N/A,,Clear,0,2013-01-03 13:53:00
6:53 AM,1.0,-0.9,91,30.51,10.0,Calm,Calm,-,N/A,,Clear,0,2013-01-03 14:53:00
7:53 AM,1.9,-0.9,88,30.52,10.0,West,3.5,-,N/A,,Clear,270,2013-01-03 15:53:00
8:53 AM,5.0,1.9,87,30.52,10.0,WNW,3.5,-,N/A,,Clear,300,2013-01-03 16:53:00
9:53 AM,12.0,10.0,92,30.51,10.0,Calm,Calm,-,N/A,,Clear,0,2013-01-03 17:53:00
10:53 AM,19.9,16.0,85,30.48,10.0,NNE,5.8,-,N/A,,Clear,30,2013-01-03 18:53:00
11:53 AM,25.0,17.1,72,30.45,10.0,NE,3.5,-,N/A,,Clear,40,2013-01-03 19:53:00
12:53 PM,26.1,17.1,69,30.43,10.0,NE,5.8,-,N/A,,Clear,40,2013-01-03 20:53:00
1:53 PM,27.0,17.1,66,30.40,10.0,NE,9.2,-,N/A,,Clear,50,2013-01-03 21:53:00
2:53 PM,25.0,16.0,69,30.40,10.0,North,6.9,-,N/A,,Clear,360,2013-01-03 22:53:00
3:53 PM,23.0,16.0,74,30.40,10.0,North,4.6,-,N/A,,Clear,10,2013-01-03 23:53:00
4:53 PM,15.1,12.9,91,30.43,10.0,NW,3.5,-,N/A,,Clear,320,2013-01-04 00:53:00
5:53 PM,9.0,8.1,96,30.43,10.0,Calm,Calm,-,N/A,,Clear,0,2013-01-04 01:53:00
6:53 PM,12.0,10.0,92,30.45,10.0,WSW,6.9,-,N/A,,Clear,250,2013-01-04 02:53:00
7:53 PM,8.1,6.1,92,30.44,10.0,ENE,3.5,-,N/A,,Clear,70,2013-01-04 03:53:00
8:53 PM,7.0,3.9,87,30.44,10.0,Calm,Calm,-,N/A,,Clear,0,2013-01-04 04:53:00
9:53 PM,9.0,7.0,92,30.44,10.0,Calm,Calm,-,N/A,,Clear,0,2013-01-04 05:53:00
10:53 PM,3.9,1.0,88,30.46,10.0,Calm,Calm,-,N/A,,Partly Cloudy,0,2013-01-04 06:53:00
11:53 PM,9.0,7.0,92,30.44,10.0,Calm,Calm,-,N/A,,Overcast,0,2013-01-04 07:53:00